Weather History for KSHV - May, 2013

Change the Weather History Date:

Monday, May 27, 2013

  Actual Average Record
Temperature  
Mean Temperature 78 °F 76 °F  
Max Temperature 87 °F 86 °F 97 °F (1886)
Min Temperature 68 °F 66 °F 47 °F (1961)
Degree Days  
Heating Degree Days 0 0  
Month to date heating degree days 38 5  
Since 1 July heating degree days 2081 2224  
Cooling Degree Days 13 11  
Month to date cooling degree days 204 217  
Year to date cooling degree days 323 352  
Growing Degree Days 28 (Base 50)    
Moisture  
Dew Point 67 °F    
Average Humidity 75    
Maximum Humidity 100    
Minimum Humidity 50    
Precipitation  
Precipitation 0.00 in 0.17 in 2.38 in (2000)
Month to date precipitation 2.65 4.32  
Year to date precipitation 16.85 21.60  
Snow  
Snow 0.00 in - - ()
Month to date snowfall 0.0  
Since 1 July snowfall 0.1  
Snow Depth 0.00 in    
Sea Level Pressure  
Sea Level Pressure 30.00 in    
Wind  
Wind Speed 10 mph (South)    
Max Wind Speed 20 mph    
Max Gust Speed 25 mph    
Visibility 8 miles    
Events      
T = Trace of Precipitation, MM = Missing Value Source: NWS Daily Summary

Daily Weather History Graph

Daily Weather History Graph

Search for Another Location

Airport or City:

Trip Planner

Search our weather history database for the weather conditions in past years. The results will help you decide how hot, cold, wet, or windy it might be!

Date:

Astronomy

May. 27, 2013 Rise Set
Actual Time 6:10 AM CDT 8:14 PM CDT
Civil Twilight 5:42 AM CDT 8:42 PM CDT
Nautical Twilight 5:08 AM CDT 9:16 PM CDT
Astronomical Twilight 4:32 AM CDT 9:52 PM CDT
Moon 10:58 PM CDT (5/27) 8:46 AM CDT (5/27)
Length of Visible Light 14h 59m
Length of Day
14h 04m
Waning Gibbous, 91% of the Moon is Illuminated
May 27
Waning Gibbous
May 31
Last Quarter
Jun 8
New
Jun 16
First Quarter
Jun 23
Full

Hourly Weather History & Observations

Time (CDT) Temp. Heat Index Dew Point Humidity Pressure Visibility Wind Dir Wind Speed Gust Speed Precip Events Conditions
12:56 AM 71.1 °F - 66.9 °F 87% 30.04 in 10.0 mi South 5.8 mph - N/A   Partly Cloudy
1:56 AM 70.0 °F - 66.9 °F 90% 30.03 in 9.0 mi SSE 5.8 mph - N/A   Scattered Clouds
2:56 AM 70.0 °F - 68.0 °F 93% 30.02 in 7.0 mi South 4.6 mph - N/A   Mostly Cloudy
3:56 AM 70.0 °F - 68.0 °F 93% 30.00 in 7.0 mi SSE 5.8 mph - N/A   Overcast
4:56 AM 69.1 °F - 66.9 °F 93% 30.00 in 7.0 mi SE 5.8 mph - N/A   Overcast
5:17 AM 69.8 °F - 68.0 °F 94% 30.01 in 6.0 mi SE 4.6 mph - N/A   Overcast
5:56 AM 68.0 °F - 66.9 °F 96% 30.02 in 5.0 mi SSE 4.6 mph - N/A   Overcast
6:10 AM 69.8 °F - 68.0 °F 94% 30.04 in 4.0 mi SE 4.6 mph - N/A   Mostly Cloudy
6:26 AM 69.8 °F - 68.0 °F 94% 30.04 in 3.0 mi SSE 5.8 mph - N/A   Overcast
6:35 AM 69.8 °F - 69.8 °F 100% 30.04 in 2.5 mi SSE 4.6 mph - N/A   Overcast
6:50 AM 69.8 °F - 69.8 °F 100% 30.05 in 3.0 mi SSE 5.8 mph - N/A   Overcast
6:56 AM 70.0 °F - 69.1 °F 97% 30.04 in 3.0 mi SSE 4.6 mph - N/A   Overcast
7:56 AM 71.1 °F - 69.1 °F 93% 30.05 in 3.0 mi South 6.9 mph - N/A   Overcast
8:38 AM 73.4 °F - 69.8 °F 88% 30.06 in 4.0 mi SSE 8.1 mph - N/A   Overcast
8:56 AM 73.9 °F - 70.0 °F 87% 30.05 in 6.0 mi South 11.5 mph - N/A   Overcast
9:20 AM 73.4 °F - 69.8 °F 88% 30.06 in 7.0 mi South 11.5 mph - N/A   Overcast
9:56 AM 75.9 °F - 69.1 °F 79% 30.05 in 9.0 mi SSW 9.2 mph - N/A   Mostly Cloudy
10:05 AM 75.2 °F - 69.8 °F 83% 30.06 in 9.0 mi SSW 11.5 mph - N/A   Mostly Cloudy
10:18 AM 77.0 °F - 68.0 °F 74% 30.05 in 10.0 mi South 12.7 mph - N/A   Scattered Clouds
10:56 AM 81.0 °F 83.8 °F 68.0 °F 65% 30.04 in 10.0 mi SSW 17.3 mph 21.9 mph N/A   Scattered Clouds
11:56 AM 80.1 °F 82.1 °F 66.0 °F 62% 30.04 in 10.0 mi SSW 11.5 mph - N/A   Mostly Cloudy
12:56 PM 84.0 °F 86.3 °F 66.0 °F 55% 30.02 in 10.0 mi SSW 12.7 mph - N/A   Scattered Clouds
1:56 PM 86.0 °F 89.4 °F 68.0 °F 55% 29.99 in 10.0 mi South 17.3 mph 25.3 mph N/A   Scattered Clouds
2:56 PM 84.9 °F 87.6 °F 66.9 °F 55% 29.97 in 10.0 mi South 15.0 mph 19.6 mph N/A   Scattered Clouds
3:56 PM 87.1 °F 89.9 °F 66.9 °F 51% 29.95 in 10.0 mi SSW 12.7 mph 20.7 mph N/A   Scattered Clouds
4:56 PM 87.1 °F 89.9 °F 66.9 °F 51% 29.94 in 10.0 mi SSW 13.8 mph 20.7 mph N/A   Partly Cloudy
5:56 PM 86.0 °F 88.2 °F 66.0 °F 51% 29.92 in 10.0 mi South 13.8 mph - N/A   Partly Cloudy
6:56 PM 84.9 °F 87.6 °F 66.9 °F 55% 29.90 in 10.0 mi SSE 9.2 mph - N/A   Partly Cloudy
7:56 PM 82.0 °F 84.1 °F 66.0 °F 58% 29.90 in 10.0 mi SSE 11.5 mph - N/A   Partly Cloudy
8:56 PM 80.1 °F 81.9 °F 64.9 °F 60% 29.90 in 10.0 mi SSE 12.7 mph - N/A   Clear
9:56 PM 78.1 °F - 64.0 °F 62% 29.93 in 10.0 mi South 10.4 mph - N/A   Clear
10:56 PM 75.9 °F - 64.9 °F 69% 29.96 in 10.0 mi South 10.4 mph - N/A   Clear
11:56 PM 73.9 °F - 66.9 °F 79% 29.95 in 10.0 mi South 9.2 mph - N/A   Clear